When you browse on this site, cookies collect data to enhance your experience and personalize the content and advertising you see.
Visit our Privacy Policy to learn more. By continuing to use the site, you agree to this use of cookies and data.
  • In Latvia
  • List of Countries
  • For 7 days
  • Water Temperature
  • Weather Map
  • Weather Widgets
  • user-avatar
    Login

    Hourly Weather Lugano

    Today, 26 May, Tuesday

    Time Temperature Precipitation Wind Pressure Humidity
    00:00 +14°C° 0 mm 3 mps 744 mmHg 63%
    01:00 +13°C° 0 mm 4 mps 744 mmHg 65%
    02:00 +13°C° 0 mm 4 mps 744 mmHg 65%
    03:00 +12°C° 0 mm 3 mps 744 mmHg 65%
    04:00 +12°C° 0 mm 3 mps 744 mmHg 65%
    05:00 +14°C° 0 mm 2 mps 744 mmHg 61%
    06:00 +15°C° 0 mm 2 mps 744 mmHg 56%
    07:00 +18°C° 0 mm 1 mps 744 mmHg 52%
    08:00 +20°C° 0 mm 1 mps 744 mmHg 47%
    09:00 +22°C° 0 mm 1 mps 744 mmHg 42%
    10:00 +24°C° 0 mm 2 mps 744 mmHg 37%
    11:00 +24°C° 0 mm 2 mps 744 mmHg 38%
    12:00 +25°C° 0 mm 2 mps 744 mmHg 38%
    13:00 +25°C° 0 mm 2 mps 744 mmHg 39%
    14:00 +25°C° 0 mm 2 mps 743 mmHg 40%
    15:00 +25°C° 0 mm 2 mps 743 mmHg 41%
    16:00 +25°C° 0 mm 2 mps 743 mmHg 42%
    17:00 +24°C° 0 mm 1 mps 743 mmHg 50%
    18:00 +23°C° 0 mm 1 mps 743 mmHg 58%
    19:00 +21°C° 0 mm 1 mps 743 mmHg 66%
    20:00 +20°C° 0 mm 1 mps 744 mmHg 70%
    21:00 +18°C° 0 mm 1 mps 744 mmHg 74%
    22:00 +16°C° 0 mm 1 mps 745 mmHg 77%
    23:00 +15°C° 0 mm 1 mps 745 mmHg 76%

    Tomorrow, 27 May, Wednesday

    Time Temperature Precipitation Wind Pressure Humidity
    00:00 +15°C° 0 mm 1 mps 745 mmHg 75%
    01:00 +15°C° 0 mm 1 mps 745 mmHg 74%
    02:00 +15°C° 0 mm 1 mps 745 mmHg 73%
    03:00 +15°C° 0 mm 1 mps 745 mmHg 73%
    04:00 +14°C° 0 mm 1 mps 745 mmHg 72%
    05:00 +15°C° 0 mm 1 mps 745 mmHg 69%
    06:00 +16°C° 0 mm 1 mps 745 mmHg 67%
    07:00 +16°C° 0 mm 0 mps 745 mmHg 64%
    08:00 +19°C° 0 mm 1 mps 745 mmHg 59%
    09:00 +21°C° 0 mm 1 mps 745 mmHg 54%
    10:00 +23°C° 0 mm 1 mps 745 mmHg 50%
    11:00 +24°C° 0 mm 1 mps 745 mmHg 47%
    12:00 +24°C° 0 mm 2 mps 745 mmHg 44%
    13:00 +25°C° 0 mm 2 mps 744 mmHg 42%
    14:00 +25°C° 0 mm 2 mps 744 mmHg 42%
    15:00 +25°C° 0 mm 2 mps 744 mmHg 42%
    16:00 +25°C° 0 mm 2 mps 744 mmHg 41%
    17:00 +24°C° 0 mm 2 mps 744 mmHg 48%
    18:00 +23°C° 0 mm 1 mps 744 mmHg 55%
    19:00 +22°C° 0 mm 1 mps 744 mmHg 62%
    20:00 +20°C° 0 mm 1 mps 744 mmHg 66%
    21:00 +19°C° 0 mm 1 mps 744 mmHg 69%
    22:00 +16°C° 0 mm 1 mps 745 mmHg 72%
    23:00 +16°C° 0 mm 1 mps 744 mmHg 72%

    Day after tomorrow, 28 May, Thursday

    Time Temperature Precipitation Wind Pressure Humidity
    00:00 +15°C° 0 mm 1 mps 744 mmHg 72%
    01:00 +15°C° 0 mm 2 mps 744 mmHg 72%
    02:00 +15°C° 0 mm 2 mps 744 mmHg 70%
    03:00 +14°C° 0 mm 2 mps 744 mmHg 69%
    04:00 +14°C° 0 mm 2 mps 744 mmHg 67%
    05:00 +15°C° 0 mm 1 mps 743 mmHg 64%
    06:00 +18°C° 0 mm 1 mps 743 mmHg 60%
    07:00 +19°C° 0 mm 1 mps 743 mmHg 57%
    08:00 +21°C° 0 mm 1 mps 743 mmHg 51%
    09:00 +23°C° 0 mm 1 mps 743 mmHg 46%
    10:00 +25°C° 0 mm 1 mps 742 mmHg 41%
    11:00 +26°C° 0 mm 1 mps 742 mmHg 39%
    12:00 +27°C° 0 mm 2 mps 742 mmHg 38%
    13:00 +28°C° 0 mm 2 mps 741 mmHg 37%
    14:00 +27°C° 0 mm 2 mps 741 mmHg 39%
    15:00 +27°C° 0 mm 2 mps 740 mmHg 41%
    16:00 +27°C° 0 mm 2 mps 740 mmHg 43%
    17:00 +25°C° 0.4 mm 2 mps 740 mmHg 53%
    18:00 +24°C° 0.4 mm 1 mps 740 mmHg 62%
    19:00 +23°C° 0.4 mm 1 mps 740 mmHg 72%
    20:00 +21°C° 0.1 mm 1 mps 740 mmHg 75%
    21:00 +19°C° 0.1 mm 1 mps 740 mmHg 77%
    22:00 +17°C° 0.1 mm 2 mps 740 mmHg 80%
    23:00 +16°C° 0.1 mm 2 mps 741 mmHg 81%

    29 May, Friday

    Time Temperature Precipitation Wind Pressure Humidity
    00:00 +15°C° 0.1 mm 2 mps 741 mmHg 82%
    01:00 +15°C° 0.1 mm 2 mps 741 mmHg 83%
    02:00 +15°C° 0 mm 1 mps 741 mmHg 82%
    03:00 +15°C° 0 mm 1 mps 741 mmHg 81%
    04:00 +15°C° 0 mm 1 mps 741 mmHg 80%
    05:00 +15°C° 0.1 mm 1 mps 741 mmHg 80%
    06:00 +16°C° 0.1 mm 1 mps 740 mmHg 80%
    07:00 +15°C° 0.1 mm 0 mps 740 mmHg 80%
    08:00 +18°C° 0 mm 1 mps 740 mmHg 79%
    09:00 +18°C° 0 mm 1 mps 740 mmHg 78%
    10:00 +19°C° 0 mm 1 mps 740 mmHg 77%
    11:00 +20°C° 0 mm 1 mps 739 mmHg 70%
    12:00 +22°C° 0 mm 1 mps 739 mmHg 64%
    13:00 +23°C° 0 mm 1 mps 739 mmHg 57%
    14:00 +23°C° 0 mm 1 mps 738 mmHg 57%
    15:00 +23°C° 0 mm 1 mps 738 mmHg 57%
    16:00 +23°C° 0 mm 1 mps 738 mmHg 57%
    17:00 +23°C° 0 mm 1 mps 738 mmHg 61%
    18:00 +22°C° 0 mm 1 mps 738 mmHg 66%
    19:00 +21°C° 0 mm 1 mps 738 mmHg 71%
    20:00 +20°C° 0 mm 1 mps 738 mmHg 75%
    21:00 +19°C° 0 mm 1 mps 738 mmHg 79%
    22:00 +16°C° 0 mm 1 mps 739 mmHg 83%
    23:00 +16°C° 0 mm 1 mps 739 mmHg 82%

    30 May, Saturday

    Time Temperature Precipitation Wind Pressure Humidity
    00:00 +18°C° 0 mm 1 mps 739 mmHg 80%
    01:00 +18°C° 0 mm 1 mps 738 mmHg 79%
    02:00 +16°C° 0.1 mm 1 mps 738 mmHg 81%
    03:00 +16°C° 0.1 mm 1 mps 738 mmHg 83%
    04:00 +16°C° 0.1 mm 1 mps 738 mmHg 85%
    05:00 +15°C° 0.3 mm 1 mps 738 mmHg 85%
    06:00 +15°C° 0.3 mm 1 mps 738 mmHg 86%
    07:00 +15°C° 0.3 mm 1 mps 738 mmHg 87%
    08:00 +16°C° 0.1 mm 1 mps 738 mmHg 83%
    09:00 +16°C° 0.1 mm 1 mps 738 mmHg 79%
    10:00 +18°C° 0.1 mm 1 mps 738 mmHg 75%
    11:00 +19°C° 0 mm 1 mps 738 mmHg 70%
    12:00 +21°C° 0 mm 1 mps 738 mmHg 64%
    13:00 +21°C° 0 mm 2 mps 738 mmHg 59%
    14:00 +21°C° 0.1 mm 2 mps 738 mmHg 59%
    15:00 +22°C° 0.1 mm 1 mps 737 mmHg 60%
    16:00 +22°C° 0.1 mm 1 mps 737 mmHg 60%
    17:00 +21°C° 0 mm 1 mps 737 mmHg 64%
    18:00 +21°C° 0 mm 1 mps 737 mmHg 68%
    19:00 +20°C° 0 mm 1 mps 737 mmHg 72%
    20:00 +19°C° 0 mm 1 mps 738 mmHg 75%
    21:00 +18°C° 0 mm 1 mps 738 mmHg 78%
    22:00 +16°C° 0 mm 1 mps 738 mmHg 82%
    23:00 +16°C° 0 mm 1 mps 738 mmHg 83%

    31 May, Sunday

    Time Temperature Precipitation Wind Pressure Humidity
    00:00 +14°C° 0 mm 0 mps 738 mmHg 84%
    01:00 +14°C° 0 mm 0 mps 738 mmHg 85%
    02:00 +14°C° 0 mm 0 mps 738 mmHg 85%
    03:00 +14°C° 0 mm 0 mps 737 mmHg 85%
    04:00 +14°C° 0 mm 0 mps 737 mmHg 84%
    05:00 +15°C° 0 mm 0 mps 737 mmHg 82%
    06:00 +16°C° 0 mm 0 mps 737 mmHg 79%
    07:00 +16°C° 0 mm 0 mps 737 mmHg 77%
    08:00 +20°C° 0.1 mm 1 mps 737 mmHg 72%
    09:00 +21°C° 0.1 mm 1 mps 737 mmHg 66%
    10:00 +21°C° 0.1 mm 2 mps 737 mmHg 61%
    11:00 +23°C° 0.2 mm 2 mps 736 mmHg 60%
    12:00 +23°C° 0.2 mm 2 mps 736 mmHg 59%
    13:00 +24°C° 0.2 mm 2 mps 736 mmHg 58%
    14:00 +23°C° 0.4 mm 2 mps 735 mmHg 60%
    15:00 +23°C° 0.4 mm 2 mps 735 mmHg 63%
    16:00 +23°C° 0.4 mm 1 mps 735 mmHg 66%
    17:00 +22°C° 0.6 mm 1 mps 735 mmHg 70%
    18:00 +21°C° 0.6 mm 1 mps 735 mmHg 75%
    19:00 +21°C° 0.6 mm 1 mps 735 mmHg 79%
    20:00 +19°C° 0.5 mm 1 mps 735 mmHg 81%
    21:00 +18°C° 0.5 mm 1 mps 735 mmHg 82%
    22:00 +16°C° 0.5 mm 1 mps 736 mmHg 84%
    23:00 +16°C° 0.3 mm 1 mps 735 mmHg 85%
    Show more